[[{"header":{"parameterUnit":"m.s-1","parameterCategory":2,"la1":30.2991,"la2":30.254,"lo1":-89.0895,"lo2":-89.0444,"dy":0.0017,"dx":0.0017,"nx":28,"ny":28,"refTime":"2025-04-06T09:00:00:Z","depth":"0","parameterNumber":2,"parameterNumberName":"U-component_of_CURRENTS"},"data":[0,0,0,0,0,0,0,0,0,0,0,0,0,0,0,0,0,0,0,0,0,0,0,0,0,0,0,0,0,0,0,0,0,0,0,0,0,0,0,0,0,0,0,0,0,0,0,0,0,0,0,0,0,0,0,0,0,0,0.2953,0.2953,0,0.2946,0.2945,0.2945,0.2913,0.2913,0.2913,0.2912,0.2863,0.2863,0.2862,0,0,0,0,0,0,0,0,0,0,0,0,0,0.2944,0.2944,0.2953,0.2953,0.2953,0.2946,0.2945,0.2945,0.2914,0.2913,0.2912,0.2912,0.2864,0.2863,0.2862,0,0,0,0,0,0,0,0,0,0,0,0,0,0.294,0.2944,0.2953,0.2939,0.2937,0.2946,0.2945,0.2945,0.2914,0.2913,0.2912,0.2912,0.2864,0.2863,0.2861,0.2868,0,0,0.2858,0.2857,0,0,0,0,0,0,0,0,0.2941,0.294,0.294,0.294,0.2938,0.2932,0.2925,0.2918,0.2914,0.292,0.2912,0.2911,0.2885,0.2882,0.2879,0.2865,0.2863,0.2857,0.2857,0.2856,0.2856,0,0,0,0,0,0,0,0.2941,0.2941,0.2947,0.2941,0.294,0.2935,0.2933,0.2923,0.2903,0.2919,0.2917,0.2922,0.2884,0.288,0.2877,0.2862,0.2857,0.2856,0.2856,0.2855,0.2881,0.2882,0,0,0,0,0,0,0.2948,0.2941,0.2947,0.2947,0.2941,0.2936,0.2934,0.2933,0.2904,0.29,0.2922,0.292,0.2882,0.2879,0.2875,0.2902,0.2856,0.2855,0.2854,0.288,0.2881,0.2883,0,0,0,0,0,0,0.2948,0.2949,0.2947,0.2946,0.2946,0.2937,0.2936,0.2933,0.2933,0.2908,0.2902,0.2926,0.2882,0.2877,0.2878,0.2899,0.2854,0.2853,0.2878,0.288,0.2882,0.2941,0,0,0,0,0,0,0.2948,0.2949,0.2951,0.2947,0.2947,0.2957,0.2937,0.2933,0.2938,0.2935,0.2909,0.2904,0.2881,0.288,0.2877,0.2896,0.2852,0.2876,0.2879,0.2881,0.2937,0.2945,0.2951,0,0,0,0,0,0.2947,0.2949,0.2951,0.2952,0.295,0.2958,0.2957,0.2946,0.2939,0.2942,0.2931,0.2905,0.2895,0.288,0.2876,0.2895,0.2875,0.2878,0.2881,0.2934,0.2943,0.2951,0,0,0,0,0,0,0.294,0.2946,0.2948,0.295,0.2959,0.2954,0.2956,0.2954,0.2948,0.2945,0.2919,0.2913,0.2925,0.2906,0.289,0.2913,0.2883,0.2885,0.2924,0.2933,0.294,0.2958,0.2851,0,0,0,0,0,0.2944,0.2948,0.2957,0.2959,0.2965,0.2965,0.2968,0.2965,0.2961,0.2958,0.2942,0.2933,0.2936,0.293,0.2926,0.2933,0.294,0.2945,0.2953,0.2959,0.2972,0.3004,0.3016,0.2894,0.2894,0.2894,0,0,0.294,0.2947,0.2947,0.2959,0.2962,0.2979,0.2963,0.2973,0.2988,0.2954,0.2963,0.2958,0.2946,0.2959,0.2962,0.2942,0.3,0.2963,0.2968,0.2978,0.3009,0.3021,0.3032,0.2896,0.2896,0.2895,0,0,0.294,0.2944,0.2951,0.2965,0.2983,0.2989,0.2997,0.3002,0.3004,0.3018,0.3006,0.3019,0.3005,0.3011,0.3011,0.3057,0.3041,0.3052,0.3094,0.3126,0.3136,0.3145,0.3179,0.3191,0.3049,0.3049,0.305,0,0.2937,0.2947,0.2955,0.2973,0.2986,0.2998,0.3015,0.3028,0.3033,0.3043,0.3027,0.3048,0.3036,0.307,0.3087,0.3074,0.3088,0.3059,0.3135,0.3144,0.3153,0.3185,0.3197,0.3053,0.3052,0.3052,0.3052,0,0.2946,0.296,0.2967,0.2996,0.3013,0.3028,0.3055,0.3073,0.308,0.3092,0.3124,0.312,0.3132,0.3135,0.3123,0.318,0.3171,0.3144,0.3112,0.3168,0.3199,0.3211,0.3057,0.3056,0.3055,0.3054,0,0,0.2921,0.2964,0.2966,0.2982,0.3026,0.3036,0.308,0.3115,0.3152,0.3159,0.3203,0.3216,0.3219,0.3222,0.3216,0.3245,0.3318,0.3223,0.3223,0.3256,0.3396,0.3377,0.3387,0.3302,0.3304,0.3306,0.3397,0,0.2924,0.2953,0.298,0.3012,0.3028,0.3066,0.3108,0.3146,0.3183,0.3231,0.3247,0.3286,0.3251,0.327,0.3294,0.332,0.335,0.3297,0.3337,0.3339,0.3315,0.3401,0.3331,0.3405,0.3408,0.341,0.3411,0,0.2921,0.2942,0.2969,0.3021,0.3033,0.3061,0.3132,0.3174,0.3255,0.329,0.3334,0.3353,0.3409,0.337,0.3436,0.3403,0.3408,0.3419,0.3422,0.3393,0.3342,0.3348,0.3425,0.3386,0.3428,0.3427,0.3426,0,0.2885,0.2932,0.295,0.2966,0.3032,0.3056,0.3098,0.3183,0.3236,0.3338,0.339,0.3445,0.3486,0.3507,0.3523,0.3489,0.3597,0.3545,0.3533,0.3532,0.3476,0.3466,0.3519,0.3594,0.3594,0.3594,0.3594,0,0.287,0.2882,0.2932,0.2941,0.2978,0.3034,0.3098,0.3162,0.327,0.3336,0.3412,0.3478,0.3524,0.3579,0.3573,0.3604,0.3633,0.3572,0.3565,0.3495,0.3486,0.3449,0.3416,0.3597,0.3596,0.3596,0.3595,0,0.2824,0.2856,0.2878,0.2938,0.2959,0.2985,0.3087,0.3138,0.3256,0.3352,0.3389,0.3526,0.361,0.365,0.371,0.3674,0.3618,0.3695,0.3616,0.3597,0.3528,0.3501,0.3379,0.3264,0.3705,0.3705,0.3705,0,0.2802,0.2808,0.286,0.287,0.2895,0.2948,0.2988,0.3113,0.3175,0.3365,0.3401,0.3546,0.3631,0.3743,0.3736,0.3761,0.3631,0.368,0.3596,0.3548,0.3512,0.3335,0.3233,0.3551,0.3549,0.3549,0.3548,0,0.2759,0.2776,0.2791,0.2817,0.2846,0.2884,0.2951,0.3,0.3146,0.3254,0.3394,0.3498,0.3647,0.3674,0.3728,0.3717,0.3536,0.3661,0.3633,0.343,0.3218,0.3096,0.3471,0.354,0.3541,0.3541,0.3542,0.3542,0.2718,0.2715,0.2735,0.2751,0.2776,0.2791,0.2797,0.289,0.2985,0.3114,0.3285,0.3412,0.3579,0.367,0.3631,0.3576,0.3482,0.3491,0.3475,0.3309,0.3152,0.3518,0.3558,0.3559,0.3559,0.356,0.3561,0,0.2654,0.2654,0.2666,0.2667,0.2651,0.27,0.2743,0.2738,0.2798,0.2986,0.3114,0.331,0.3401,0.3489,0.3537,0.3431,0.3221,0.3344,0.31,0.3015,0.3392,0.3343,0.3311,0.3311,0.3311,0.3311,0.3311,0.3311,0.2618,0.2591,0.2593,0.2535,0.2532,0.2475,0.2471,0.25,0.2598,0.2729,0.2856,0.3013,0.3319,0.3508,0.3467,0.3362,0.3092,0.2965,0.2897,0.3232,0.3243,0.3255,0.3203,0.3142,0.3142,0.2396,0.2391,0.2387]},{"header":{"parameterUnit":"m.s-1","parameterCategory":2,"la1":30.2991,"la2":30.254,"lo1":-89.0895,"lo2":-89.0444,"dy":0.0017,"dx":0.0017,"nx":28,"ny":28,"refTime":"2025-04-06T09:00:00:Z","depth":"0","parameterNumber":3,"parameterNumberName":"V-component_of_CURRENTS"},"data":[0,0,0,0,0,0,0,0,0,0,0,0,0,0,0,0,0,0,0,0,0,0,0,0,0,0,0,0,0,0,0,0,0,0,0,0,0,0,0,0,0,0,0,0,0,0,0,0,0,0,0,0,0,0,0,0,0,0,0.0135,0.0135,0,0.0094,0.0094,0.0093,0.0063,0.0063,0.0062,0.0062,0.0011,0.001,0.0009,0,0,0,0,0,0,0,0,0,0,0,0,0,0.0121,0.0121,0.0135,0.0135,0.0134,0.0094,0.0094,0.0093,0.0063,0.0063,0.0062,0.0062,0.0012,0.001,0.0009,0,0,0,0,0,0,0,0,0,0,0,0,0,0.0107,0.0122,0.0135,0.0116,0.0114,0.0094,0.0094,0.0093,0.0063,0.0063,0.0062,0.0062,0.0012,0.001,0.0009,0.0001,0,0,0.0003,0.0002,0,0,0,0,0,0,0,0,0.0108,0.0107,0.0119,0.0117,0.0115,0.0085,0.007,0.0062,0.0063,0.008,0.0062,0.0062,0.0036,0.0032,0.0023,-0.0001,-0.0004,0.0003,0.0002,0.0001,0.0,0,0,0,0,0,0,0,0.0109,0.0108,0.0117,0.0119,0.0116,0.0086,0.0084,0.0068,0.0058,0.0079,0.0077,0.0075,0.0035,0.0025,0.0022,-0.0004,0.0003,0.0001,0.0,-0.0001,-0.0039,-0.0039,0,0,0,0,0,0,0.0121,0.011,0.0119,0.0116,0.0112,0.0087,0.0085,0.0093,0.0059,0.0054,0.0075,0.0074,0.0028,0.0024,0.002,0.0025,0.0001,-0.0001,-0.0002,-0.0039,-0.0039,-0.0039,0,0,0,0,0,0,0.0121,0.0122,0.012,0.0112,0.011,0.0088,0.0097,0.0093,0.0087,0.0056,0.0051,0.0075,0.0028,0.0022,0.0012,0.0022,-0.0002,-0.0003,-0.0039,-0.0039,-0.0039,0.0024,0,0,0,0,0,0,0.0121,0.0123,0.0131,0.0114,0.0111,0.012,0.0097,0.0092,0.0086,0.0084,0.0054,0.0049,0.0027,0.0015,0.001,0.0019,-0.0005,-0.0039,-0.0039,-0.0039,0.0022,0.0027,0.0031,0,0,0,0,0,0.0121,0.0141,0.0132,0.0133,0.0124,0.0121,0.0117,0.0099,0.0087,0.0091,0.0068,0.005,0.0012,0.0014,0.0008,0.0017,-0.0039,-0.0039,-0.0039,0.002,0.0026,0.003,0,0,0,0,0,0,0.0139,0.0139,0.0129,0.0148,0.0138,0.0117,0.0119,0.0104,0.0089,0.0086,0.0055,0.0048,0.0041,0.0019,0.0021,0.0004,-0.0018,-0.0019,0.0029,0.0034,0.0038,0.0058,-0.0006,0,0,0,0,0,0.0147,0.0161,0.0151,0.0163,0.0162,0.0139,0.0135,0.0123,0.0108,0.01,0.0079,0.0054,0.0036,0.0028,0.0007,0.0002,-0.0027,0.0002,0.0006,0.001,0.0021,-0.0018,-0.0016,-0.0038,-0.0038,-0.0038,0,0,0.0156,0.0158,0.0165,0.0168,0.0157,0.0169,0.0136,0.0136,0.0144,0.0098,0.01,0.0069,0.0037,0.0031,0.0025,0.0015,-0.0001,0.001,0.0014,0.0023,-0.0017,-0.0015,-0.0013,-0.0038,-0.0038,-0.0038,0,0,0.0187,0.0184,0.0208,0.0206,0.02,0.019,0.0194,0.0177,0.0167,0.0162,0.013,0.0108,0.0082,0.0062,0.0048,0.0062,0.0022,0.0051,0.0092,0.0054,0.0056,0.0057,0.0021,0.0019,0.0055,0.0055,0.0055,0,0.0197,0.023,0.0212,0.0234,0.0242,0.0206,0.0234,0.0218,0.0199,0.0197,0.0173,0.0128,0.0098,0.0091,0.0094,0.0073,0.0044,0.0079,0.0061,0.0062,0.0062,0.0024,0.0021,0.0058,0.0058,0.0057,0.0057,0,0.0249,0.0271,0.0284,0.0304,0.0308,0.0324,0.0308,0.0303,0.0282,0.0265,0.0247,0.0196,0.0173,0.0153,0.0129,0.0119,0.0095,0.0071,0.0053,0.0068,0.0027,0.0023,0.0062,0.0061,0.006,0.006,0,0,0.0282,0.0317,0.0321,0.0347,0.035,0.0363,0.0372,0.0377,0.0391,0.0344,0.0353,0.0302,0.0266,0.0247,0.0203,0.0167,0.0137,0.0126,0.0122,0.0099,0.0053,0.0033,0.0025,0.0109,0.0108,0.0108,0.0024,0,0.0329,0.0393,0.0394,0.0451,0.0484,0.0461,0.0476,0.0469,0.0452,0.0447,0.0379,0.0368,0.0304,0.0293,0.0246,0.0169,0.0128,0.0162,0.0035,0.0032,0.0018,0.0021,0.0047,-0.0026,0.0019,0.0018,0.0017,0,0.0383,0.0422,0.0491,0.0537,0.0548,0.0569,0.0595,0.0608,0.0583,0.0567,0.0531,0.0476,0.042,0.0359,0.0231,0.0256,0.0165,0.0093,0.0088,0.0047,0.0003,-0.0036,-0.0037,-0.02,0.001,0.001,0.0011,0,0.043,0.049,0.0552,0.0568,0.0607,0.0627,0.0646,0.0643,0.0675,0.0647,0.0658,0.0567,0.0533,0.0405,0.0254,0.0243,0.0106,0.0071,-0.0036,-0.0039,-0.0052,-0.0055,-0.0216,-0.0022,-0.0021,-0.0021,-0.0021,0,0.0488,0.0534,0.0578,0.0611,0.0685,0.0686,0.0757,0.0755,0.0772,0.0821,0.0727,0.0738,0.0543,0.0439,0.0286,0.0115,0.0127,-0.0025,-0.006,-0.003,-0.003,-0.0201,-0.0311,-0.0024,-0.0024,-0.0023,-0.0023,0,0.0532,0.0558,0.0635,0.0689,0.0712,0.0766,0.0846,0.0898,0.0895,0.0953,0.095,0.0867,0.0733,0.0529,0.0322,0.0172,-0.01,-0.0065,-0.0016,-0.0044,-0.0294,-0.04,-0.061,-0.0688,-0.0194,-0.0195,-0.0196,0,0.0564,0.0608,0.0698,0.0752,0.0781,0.0862,0.0925,0.0959,0.1027,0.1042,0.1081,0.0967,0.0921,0.0605,0.0312,0.0038,-0.0133,-0.0129,-0.0148,-0.0303,-0.0448,-0.0519,-0.0575,-0.0146,-0.0146,-0.0147,-0.0147,0,0.0625,0.0652,0.0717,0.0832,0.0911,0.1015,0.1105,0.1179,0.1221,0.1273,0.1316,0.1279,0.0973,0.0716,0.0322,0.0118,-0.0249,-0.0143,-0.0318,-0.0435,-0.0509,-0.0601,-0.01,-0.0149,-0.0149,-0.0149,-0.0149,-0.0149,0.0668,0.0725,0.081,0.0923,0.1019,0.1146,0.1249,0.1354,0.1477,0.1575,0.1514,0.152,0.1111,0.0589,0.0271,-0.0269,-0.0288,-0.0411,-0.0531,-0.0589,-0.0661,-0.0164,-0.0244,-0.0244,-0.0245,-0.0245,-0.0245,0,0.0724,0.079,0.0896,0.103,0.1149,0.1193,0.1359,0.1478,0.1641,0.1739,0.1793,0.1621,0.1122,0.059,-0.0141,-0.0549,-0.0703,-0.0784,-0.0881,-0.0922,-0.0485,-0.0476,-0.0591,-0.0591,-0.0591,-0.0591,-0.0591,-0.059,0.0752,0.0858,0.0916,0.1115,0.1216,0.1392,0.1498,0.1674,0.1801,0.1955,0.1993,0.1982,0.1597,0.0237,-0.0669,-0.0903,-0.1203,-0.1289,-0.1439,-0.1142,-0.1115,-0.109,-0.1106,-0.1352,-0.1353,-0.179,-0.1795,-0.1798]}],[{"header":{"parameterUnit":"m.s-1","parameterCategory":2,"la1":30.2991,"la2":30.254,"lo1":-89.0895,"lo2":-89.0444,"dy":0.0017,"dx":0.0017,"nx":28,"ny":28,"refTime":"2025-04-06T09:00:00:Z","depth":"2","parameterNumber":2,"parameterNumberName":"U-component_of_CURRENTS"},"data":[0,0,0,0,0,0,0,0,0,0,0,0,0,0,0,0,0,0,0,0,0,0,0,0,0,0,0,0,0,0,0,0,0,0,0,0,0,0,0,0,0,0,0,0,0,0,0,0,0,0,0,0,0,0,0,0,0,0,0.2806,0.2807,0,0.2804,0.2803,0.2803,0.2778,0.2778,0.2777,0.2777,0.2738,0.2737,0.2736,0,0,0,0,0,0,0,0,0,0,0,0,0,0.2793,0.2793,0.2806,0.2807,0.2807,0.2804,0.2803,0.2803,0.2778,0.2778,0.2777,0.2777,0.2738,0.2737,0.2736,0,0,0,0,0,0,0,0,0,0,0,0,0,0.2793,0.2793,0.2806,0.2796,0.2796,0.2804,0.2803,0.2803,0.2778,0.2778,0.2777,0.2777,0.2738,0.2737,0.2736,0.274,0,0,0.2733,0.2732,0,0,0,0,0,0,0,0,0.2793,0.2793,0.2797,0.2797,0.2796,0.2793,0.2784,0.2781,0.2778,0.2782,0.2777,0.2776,0.2755,0.2753,0.275,0.2738,0.2737,0.2733,0.2732,0.2732,0.2731,0,0,0,0,0,0,0,0.2793,0.2793,0.2802,0.2798,0.2797,0.2793,0.2792,0.2784,0.2768,0.2781,0.278,0.2785,0.2754,0.2751,0.2749,0.2736,0.2733,0.2732,0.2731,0.2731,0.2762,0.2763,0,0,0,0,0,0,0.2799,0.2793,0.2802,0.2802,0.2796,0.2794,0.2793,0.2792,0.2769,0.2767,0.2785,0.2784,0.2753,0.275,0.2747,0.2778,0.2732,0.2731,0.273,0.276,0.2762,0.2763,0,0,0,0,0,0,0.2799,0.28,0.2803,0.28,0.2801,0.2795,0.2795,0.2793,0.2796,0.2773,0.2769,0.2792,0.2752,0.2749,0.2753,0.2775,0.273,0.2729,0.2758,0.2761,0.2763,0.2821,0,0,0,0,0,0,0.2799,0.28,0.2804,0.2801,0.2801,0.2814,0.2795,0.2793,0.2801,0.2799,0.2778,0.2773,0.2752,0.2755,0.2752,0.2773,0.2728,0.2757,0.2759,0.2762,0.2817,0.2825,0.2832,0,0,0,0,0,0.2798,0.2801,0.2805,0.2806,0.2806,0.2815,0.2814,0.2806,0.2802,0.2807,0.2798,0.2774,0.277,0.2755,0.2751,0.2772,0.2755,0.2759,0.2762,0.2814,0.2824,0.2832,0,0,0,0,0,0,0.2793,0.2799,0.2803,0.2807,0.2816,0.2812,0.2816,0.2816,0.2813,0.2813,0.2788,0.2784,0.2799,0.2781,0.2765,0.2791,0.2761,0.2763,0.2802,0.2811,0.2818,0.2834,0.2728,0,0,0,0,0,0.2798,0.2803,0.2812,0.2817,0.2823,0.2825,0.2828,0.2828,0.2826,0.2824,0.2812,0.2805,0.281,0.2805,0.2803,0.2812,0.2818,0.2826,0.2833,0.2839,0.2852,0.2883,0.2894,0.2774,0.2774,0.2774,0,0,0.2795,0.2803,0.2804,0.2817,0.2822,0.2838,0.2824,0.2836,0.2852,0.2821,0.2834,0.283,0.282,0.2835,0.284,0.282,0.2879,0.2843,0.2848,0.2858,0.2887,0.2899,0.2909,0.2777,0.2776,0.2776,0,0,0.2798,0.2804,0.2812,0.2826,0.2845,0.2851,0.286,0.2867,0.2871,0.2887,0.2877,0.2892,0.2882,0.2888,0.2888,0.2935,0.292,0.2931,0.2974,0.3004,0.3014,0.3023,0.3055,0.3066,0.2929,0.293,0.293,0,0.2798,0.2808,0.2817,0.2835,0.2848,0.2862,0.2879,0.2893,0.2901,0.2912,0.2899,0.2923,0.2912,0.2946,0.2964,0.2952,0.2966,0.2939,0.3013,0.3022,0.303,0.3061,0.3073,0.2933,0.2932,0.2932,0.2932,0,0.2808,0.2823,0.2831,0.286,0.2878,0.2894,0.292,0.2939,0.2949,0.2961,0.2996,0.2994,0.3007,0.3011,0.3001,0.3057,0.3048,0.3022,0.299,0.3046,0.3075,0.3086,0.2937,0.2936,0.2935,0.2934,0,0,0.2788,0.2829,0.2832,0.2848,0.2891,0.2902,0.2946,0.298,0.3018,0.3028,0.3072,0.3088,0.3093,0.3096,0.3091,0.312,0.3192,0.3099,0.3099,0.3131,0.3266,0.3242,0.3252,0.3176,0.3178,0.318,0.3267,0,0.2793,0.2822,0.2847,0.288,0.2896,0.2933,0.2974,0.3012,0.305,0.3098,0.3115,0.3155,0.3123,0.3145,0.3168,0.3193,0.3223,0.3171,0.3209,0.3211,0.3181,0.3264,0.2991,0.3044,0.3278,0.3279,0.3281,0,0.2792,0.2812,0.284,0.2889,0.2901,0.2931,0.3,0.3042,0.3121,0.3156,0.3202,0.3222,0.3278,0.3241,0.3305,0.3274,0.3279,0.329,0.3292,0.3258,0.3208,0.3025,0.3055,0.3299,0.3297,0.3296,0.3295,0,0.2758,0.2804,0.2823,0.2839,0.2902,0.2928,0.297,0.3053,0.3104,0.3206,0.3257,0.3312,0.3354,0.3374,0.339,0.3358,0.346,0.3411,0.3394,0.3391,0.3162,0.3137,0.3458,0.3458,0.3458,0.3457,0.3457,0,0.2745,0.2758,0.2808,0.2817,0.2854,0.291,0.2973,0.3037,0.3142,0.3206,0.3281,0.3344,0.3391,0.3443,0.3438,0.3464,0.3495,0.3431,0.3422,0.3176,0.3153,0.3365,0.3354,0.3461,0.346,0.3459,0.3459,0,0.2703,0.2734,0.2757,0.2816,0.2837,0.2865,0.2966,0.3016,0.3132,0.3224,0.3262,0.3392,0.3472,0.351,0.3567,0.353,0.3554,0.3545,0.3265,0.3223,0.3452,0.3443,0.3548,0.3548,0.3548,0.3548,0.3548,0,0.2682,0.2689,0.2742,0.2752,0.2778,0.2832,0.2872,0.2994,0.3054,0.3236,0.327,0.3408,0.3482,0.3584,0.3548,0.3562,0.3587,0.3308,0.3199,0.3486,0.3467,0.3457,0.3447,0.2915,0.2909,0.2905,0.2902,0,0.264,0.266,0.2675,0.2703,0.2733,0.2769,0.2836,0.2883,0.3024,0.3124,0.3253,0.3345,0.3457,0.3365,0.3401,0.3358,0.3288,0.3227,0.3595,0.2948,0.2899,0.2878,0.2886,0.2864,0.2868,0.2871,0.2873,0.2875,0.2603,0.2601,0.2621,0.2639,0.2665,0.2679,0.2683,0.2764,0.285,0.294,0.3109,0.3141,0.3185,0.3116,0.3026,0.294,0.3164,0.2993,0.3,0.3013,0.2939,0.2894,0.2845,0.2848,0.2851,0.2854,0.2856,0,0.2538,0.2542,0.2555,0.2556,0.2536,0.2592,0.263,0.2598,0.2638,0.275,0.2839,0.2644,0.262,0.2642,0.247,0.2493,0.2412,0.2377,0.2226,0.2268,0.2305,0.2187,0.1897,0.1893,0.189,0.1887,0,0,0.2502,0.2474,0.2476,0.2415,0.2418,0.2352,0.2347,0.2325,0.2354,0.2332,0.2324,0.2517,0.2603,0.2212,0.2176,0.2001,0.2109,0.1925,0.2706,0.2574,0.2605,0.2688,0.2561,0,0,0,0,0]},{"header":{"parameterUnit":"m.s-1","parameterCategory":2,"la1":30.2991,"la2":30.254,"lo1":-89.0895,"lo2":-89.0444,"dy":0.0017,"dx":0.0017,"nx":28,"ny":28,"refTime":"2025-04-06T09:00:00:Z","depth":"2","parameterNumber":3,"parameterNumberName":"V-component_of_CURRENTS"},"data":[0,0,0,0,0,0,0,0,0,0,0,0,0,0,0,0,0,0,0,0,0,0,0,0,0,0,0,0,0,0,0,0,0,0,0,0,0,0,0,0,0,0,0,0,0,0,0,0,0,0,0,0,0,0,0,0,0,0,0.0216,0.0215,0,0.0176,0.0175,0.0175,0.0146,0.0146,0.0145,0.0145,0.0096,0.0095,0.0093,0,0,0,0,0,0,0,0,0,0,0,0,0,0.0204,0.0205,0.0216,0.0215,0.0215,0.0176,0.0175,0.0175,0.0146,0.0146,0.0145,0.0145,0.0096,0.0095,0.0093,0,0,0,0,0,0,0,0,0,0,0,0,0,0.019,0.0205,0.0216,0.0197,0.0195,0.0176,0.0175,0.0174,0.0146,0.0146,0.0145,0.0145,0.0097,0.0095,0.0093,0.0086,0,0,0.0088,0.0087,0,0,0,0,0,0,0,0,0.0191,0.0191,0.02,0.0198,0.0196,0.0167,0.0153,0.0145,0.0146,0.0163,0.0145,0.0145,0.012,0.0116,0.0107,0.0084,0.0082,0.0088,0.0086,0.0086,0.0085,0,0,0,0,0,0,0,0.0192,0.0192,0.0199,0.0199,0.0197,0.0169,0.0167,0.0151,0.0142,0.0161,0.016,0.0157,0.0118,0.0109,0.0106,0.0081,0.0088,0.0086,0.0085,0.0084,0.0046,0.0046,0,0,0,0,0,0,0.0203,0.0193,0.02,0.0198,0.0194,0.017,0.0168,0.0175,0.0142,0.0137,0.0157,0.0156,0.0112,0.0108,0.0104,0.0107,0.0086,0.0084,0.0083,0.0046,0.0046,0.0046,0,0,0,0,0,0,0.0204,0.0205,0.0201,0.0195,0.0192,0.0171,0.0179,0.0174,0.0168,0.0139,0.0134,0.0156,0.0112,0.0107,0.0096,0.0104,0.0083,0.0082,0.0046,0.0046,0.0046,0.0105,0,0,0,0,0,0,0.0204,0.0205,0.0212,0.0196,0.0193,0.0201,0.0179,0.0174,0.0167,0.0165,0.0136,0.0131,0.0111,0.0099,0.0094,0.0102,0.008,0.0046,0.0046,0.0046,0.0103,0.0107,0.011,0,0,0,0,0,0.0203,0.0221,0.0213,0.0214,0.0205,0.0201,0.0198,0.0179,0.0168,0.0171,0.015,0.0132,0.0096,0.0098,0.0092,0.0099,0.0046,0.0046,0.0046,0.0101,0.0106,0.011,0,0,0,0,0,0,0.0219,0.0219,0.021,0.0227,0.0217,0.0197,0.0198,0.0184,0.0169,0.0165,0.0136,0.013,0.0122,0.0101,0.0104,0.0087,0.0066,0.0065,0.011,0.0114,0.0118,0.0138,0.0079,0,0,0,0,0,0.0227,0.024,0.023,0.0241,0.0239,0.0218,0.0212,0.0201,0.0186,0.0179,0.0159,0.0135,0.0118,0.011,0.009,0.0084,0.0056,0.0083,0.0087,0.009,0.0101,0.0063,0.0065,0.0046,0.0046,0.0046,0,0,0.0234,0.0236,0.0242,0.0245,0.0234,0.0245,0.0214,0.0213,0.022,0.0176,0.0178,0.0148,0.0118,0.0111,0.0105,0.0096,0.0079,0.009,0.0094,0.0103,0.0063,0.0065,0.0067,0.0046,0.0046,0.0046,0,0,0.0263,0.0259,0.0282,0.028,0.0273,0.0263,0.0267,0.025,0.0241,0.0235,0.0205,0.0184,0.0158,0.0139,0.0126,0.0138,0.01,0.0128,0.0166,0.0128,0.013,0.0131,0.0095,0.0092,0.0131,0.0131,0.0131,0,0.027,0.0302,0.0285,0.0305,0.0313,0.0278,0.0305,0.0289,0.027,0.0268,0.0245,0.0201,0.0173,0.0166,0.0168,0.0149,0.012,0.0154,0.0135,0.0135,0.0135,0.0097,0.0094,0.0134,0.0133,0.0133,0.0133,0,0.0319,0.034,0.0352,0.0371,0.0375,0.0389,0.0374,0.0368,0.0347,0.0332,0.0313,0.0265,0.0242,0.0223,0.0201,0.0189,0.0166,0.0144,0.0127,0.0141,0.01,0.0095,0.0138,0.0137,0.0136,0.0135,0,0,0.0348,0.0382,0.0386,0.0411,0.0414,0.0426,0.0434,0.0439,0.0452,0.0406,0.0414,0.0364,0.033,0.0312,0.027,0.0234,0.0203,0.0195,0.0191,0.0167,0.0119,0.0098,0.009,0.0176,0.0175,0.0175,0.009,0,0.0392,0.0453,0.0455,0.0509,0.0541,0.0519,0.0533,0.0527,0.051,0.0505,0.0438,0.0428,0.0366,0.0355,0.0308,0.0234,0.0193,0.0228,0.0104,0.01,0.0086,0.0085,0.0113,0.004,0.0085,0.0084,0.0084,0,0.0442,0.048,0.0546,0.0592,0.0602,0.0623,0.0647,0.066,0.0635,0.0619,0.0583,0.0531,0.0475,0.0416,0.0291,0.0315,0.0227,0.0158,0.0152,0.0111,0.007,0.0033,0.0029,0.0075,0.0076,0.0076,0.0077,0,0.0486,0.0545,0.0605,0.062,0.0659,0.0678,0.0696,0.0693,0.0724,0.0696,0.0706,0.0617,0.0583,0.0459,0.0311,0.0302,0.0165,0.0133,0.0026,0.0024,0.0014,0.0011,0.0041,0.0042,0.0042,0.0042,0.0042,0,0.0541,0.0587,0.063,0.0662,0.0734,0.0735,0.0804,0.0801,0.0818,0.0865,0.0773,0.0781,0.0592,0.0489,0.0341,0.0173,0.0184,0.0036,0.0002,0.0034,0.0034,0.0039,0.004,0.0039,0.004,0.004,0.0041,0,0.0584,0.0609,0.0684,0.0737,0.0759,0.0812,0.0891,0.0941,0.0937,0.0993,0.0989,0.0906,0.0772,0.0574,0.0371,0.0225,0.0058,-0.0006,0.0044,0.0017,-0.0068,-0.0063,-0.0132,-0.0134,-0.0135,-0.0136,-0.0137,0,0.0614,0.0657,0.0745,0.0798,0.0826,0.0906,0.0967,0.1,0.1066,0.1078,0.1114,0.0999,0.095,0.0639,0.0356,0.0088,0.0052,-0.0071,-0.0087,-0.0058,-0.0085,-0.0078,-0.0072,-0.0082,-0.0082,-0.0083,-0.0083,0,0.0673,0.07,0.0763,0.0876,0.0952,0.1055,0.1143,0.1213,0.1254,0.13,0.1335,0.1294,0.0994,0.0731,0.0347,0.0162,-0.0028,-0.0085,-0.0069,-0.0038,-0.0017,-0.0041,-0.0035,-0.0085,-0.0085,-0.0085,-0.0085,-0.0085,0.0714,0.077,0.0853,0.0963,0.1058,0.1182,0.1283,0.1379,0.1494,0.1563,0.1508,0.1451,0.113,0.0653,0.0316,-0.0051,-0.003,-0.0154,-0.0151,-0.0148,-0.0122,-0.0104,-0.0184,-0.0185,-0.0185,-0.0185,-0.0185,0,0.0769,0.0834,0.0937,0.1069,0.1184,0.1228,0.1389,0.1492,0.1638,0.1677,0.1707,0.1406,0.1096,0.0715,0.0183,-0.0126,-0.0151,-0.0235,-0.0189,-0.0184,-0.018,-0.0155,-0.0226,-0.0228,-0.0229,-0.023,0,0,0.0797,0.0901,0.0957,0.115,0.1249,0.1419,0.152,0.1663,0.1737,0.1796,0.1755,0.167,0.121,0.0822,0.0392,0.0083,0.0018,0.0015,0.0083,0.0194,0.0202,-0.0097,-0.0047,0,0,0,0,0]}],[{"header":{"parameterUnit":"m.s-1","parameterCategory":2,"la1":30.2991,"la2":30.254,"lo1":-89.0895,"lo2":-89.0444,"dy":0.0017,"dx":0.0017,"nx":28,"ny":28,"refTime":"2025-04-06T09:00:00:Z","depth":"4","parameterNumber":2,"parameterNumberName":"U-component_of_CURRENTS"},"data":[0,0,0,0,0,0,0,0,0,0,0,0,0,0,0,0,0,0,0,0,0,0,0,0,0,0,0,0,0,0,0,0,0,0,0,0,0,0,0,0,0,0,0,0,0,0,0,0,0,0,0,0,0,0,0,0,0,0,0.1848,0.1849,0,0.1907,0.1907,0.1907,0.1955,0.1955,0.1956,0.1956,0.2023,0.2024,0.2025,0,0,0,0,0,0,0,0,0,0,0,0,0,0.1772,0.1773,0.1848,0.1849,0.185,0.1906,0.1907,0.1908,0.1954,0.1955,0.1956,0.1957,0.2023,0.2024,0.2025,0,0,0,0,0,0,0,0,0,0,0,0,0,0.1813,0.1773,0.1848,0.1882,0.1885,0.1906,0.1907,0.1908,0.1954,0.1955,0.1956,0.1957,0.2022,0.2024,0.2026,0.2016,0,0,0.2031,0.2032,0,0,0,0,0,0,0,0,0.181,0.1815,0.1876,0.1879,0.1884,0.1926,0.1905,0.1945,0.1954,0.1926,0.1957,0.1958,0.1992,0.1996,0.2002,0.2019,0.2022,0.2031,0.2032,0.2033,0.2033,0,0,0,0,0,0,0,0.1807,0.1813,0.1869,0.1877,0.1881,0.1892,0.1899,0.1912,0.1951,0.1928,0.1932,0.1942,0.1994,0.2,0.2004,0.2023,0.2031,0.2033,0.2034,0.2034,0.2149,0.2151,0,0,0,0,0,0,0.1804,0.181,0.1867,0.1871,0.1851,0.1893,0.19,0.191,0.1951,0.1959,0.1941,0.1944,0.1997,0.2002,0.2006,0.2099,0.2033,0.2034,0.2035,0.2147,0.2149,0.2152,0,0,0,0,0,0,0.1802,0.1808,0.1865,0.1844,0.1852,0.1893,0.1903,0.191,0.1956,0.1961,0.1969,0.1984,0.1998,0.2004,0.2057,0.2098,0.2035,0.2037,0.2145,0.2148,0.215,0.2219,0,0,0,0,0,0,0.1799,0.1807,0.1833,0.1843,0.1853,0.1902,0.1903,0.1911,0.1959,0.1964,0.2,0.2005,0.1999,0.2055,0.2059,0.2099,0.2038,0.2142,0.2146,0.215,0.2214,0.2224,0.2232,0,0,0,0,0,0.1796,0.1818,0.1833,0.1842,0.188,0.1903,0.191,0.194,0.1961,0.1985,0.2016,0.2006,0.2081,0.2058,0.2062,0.2104,0.214,0.2145,0.2149,0.221,0.2222,0.2232,0,0,0,0,0,0,0.1799,0.1825,0.1842,0.1873,0.19,0.1912,0.1944,0.1963,0.2006,0.2025,0.2029,0.2036,0.2099,0.2093,0.2067,0.2149,0.211,0.2116,0.2155,0.2166,0.2175,0.2181,0.204,0,0,0,0,0,0.181,0.1838,0.1859,0.189,0.1907,0.1935,0.1957,0.1978,0.2007,0.2029,0.2054,0.2084,0.2113,0.2135,0.2156,0.2198,0.2197,0.223,0.2239,0.2247,0.2256,0.2287,0.2299,0.2166,0.2166,0.2166,0,0,0.1821,0.1841,0.1859,0.1894,0.192,0.195,0.1952,0.1997,0.2033,0.2028,0.21,0.2121,0.2133,0.2185,0.2212,0.219,0.2286,0.2252,0.2259,0.2264,0.2293,0.2305,0.2317,0.2169,0.2169,0.2168,0,0,0.184,0.1875,0.1901,0.1927,0.1974,0.199,0.2012,0.205,0.2084,0.2142,0.2154,0.2204,0.2245,0.2264,0.2275,0.2348,0.2335,0.2361,0.241,0.2441,0.2451,0.2461,0.2481,0.2492,0.2363,0.2363,0.2363,0,0.1857,0.1888,0.1914,0.1944,0.1974,0.2012,0.2046,0.2082,0.2137,0.2168,0.2179,0.2266,0.2281,0.2338,0.2369,0.2369,0.2381,0.2365,0.2452,0.2461,0.2469,0.2488,0.2499,0.2367,0.2366,0.2366,0.2366,0,0.188,0.1923,0.1943,0.1994,0.203,0.2068,0.2113,0.2166,0.2214,0.2244,0.2327,0.2355,0.2404,0.2422,0.2421,0.2495,0.2482,0.246,0.242,0.2487,0.2502,0.2513,0.2372,0.2371,0.237,0.2369,0,0,0.1866,0.1944,0.1956,0.1989,0.2062,0.2085,0.216,0.2222,0.2281,0.2341,0.2411,0.2472,0.2497,0.2513,0.2526,0.2558,0.2634,0.2545,0.2545,0.256,0.2705,0.2534,0.2529,0.263,0.2632,0.2634,0.2693,0,0.188,0.1937,0.1979,0.2047,0.2078,0.2142,0.2206,0.2273,0.234,0.242,0.2465,0.254,0.2528,0.2573,0.2604,0.2634,0.2665,0.262,0.2644,0.2645,0.2479,0.2535,0.264,0.2701,0.2703,0.2705,0.2706,0,0.1879,0.1921,0.1986,0.2072,0.2095,0.2152,0.226,0.2324,0.2434,0.2491,0.2567,0.2609,0.2688,0.2665,0.2738,0.2714,0.2722,0.2731,0.2732,0.2554,0.2492,0.262,0.2724,0.2722,0.2721,0.272,0.2719,0,0.1831,0.1922,0.1976,0.2006,0.2111,0.2169,0.2239,0.2352,0.2419,0.2554,0.2615,0.2698,0.2761,0.2788,0.281,0.2791,0.2874,0.2839,0.2688,0.2676,0.2782,0.2771,0.2884,0.2884,0.2884,0.2884,0.2884,0,0.1804,0.1852,0.1968,0.1995,0.2075,0.2161,0.2265,0.235,0.248,0.2549,0.2655,0.271,0.2799,0.2846,0.2847,0.2794,0.29,0.2706,0.2681,0.281,0.2802,0.2789,0.2777,0.2886,0.2886,0.2885,0.2885,0,0.1735,0.1812,0.1881,0.2007,0.2055,0.2117,0.2273,0.2335,0.2478,0.2574,0.2624,0.2752,0.2807,0.2861,0.2917,0.2822,0.2805,0.2759,0.2908,0.289,0.258,0.2572,0.2591,0.2585,0.2581,0.2577,0.2573,0,0.1699,0.1731,0.1876,0.1919,0.1986,0.2095,0.2162,0.232,0.238,0.2562,0.2582,0.2707,0.2763,0.2701,0.2777,0.2764,0.2726,0.2696,0.262,0.2576,0.2552,0.255,0.2548,0.2566,0.2565,0.2563,0.2562,0,0.1628,0.1702,0.1757,0.1851,0.1932,0.2004,0.2112,0.2142,0.2304,0.2453,0.2478,0.2504,0.256,0.2586,0.26,0.2584,0.2703,0.2646,0.2655,0.2584,0.2546,0.2526,0.253,0.2546,0.2548,0.255,0.2551,0,0.1582,0.1603,0.169,0.1755,0.1847,0.1874,0.195,0.2005,0.2084,0.2274,0.2277,0.2401,0.2531,0.2493,0.2505,0.248,0.2433,0.2334,0.2358,0.2377,0.2277,0.2197,0.2073,0,0,0,0,0,0.152,0.1525,0.158,0.1634,0.1717,0.177,0.189,0.1965,0.2118,0.2076,0.217,0.2207,0.2225,0.2297,0.2226,0.2413,0.2447,0.232,0.2348,0.2456,0.2475,0.2375,0,0,0,0,0,0,0.1473,0.1521,0.1535,0.1517,0.1529,0.16,0.1669,0.1774,0.1759,0.1923,0.1947,0.2068,0.2125,0.2239,0.2182,0.2202,0.2171,0.2406,0.2399,0.2445,0.2462,0.2477,0.2381,0,0,0,0,0]},{"header":{"parameterUnit":"m.s-1","parameterCategory":2,"la1":30.2991,"la2":30.254,"lo1":-89.0895,"lo2":-89.0444,"dy":0.0017,"dx":0.0017,"nx":28,"ny":28,"refTime":"2025-04-06T09:00:00:Z","depth":"4","parameterNumber":3,"parameterNumberName":"V-component_of_CURRENTS"},"data":[0,0,0,0,0,0,0,0,0,0,0,0,0,0,0,0,0,0,0,0,0,0,0,0,0,0,0,0,0,0,0,0,0,0,0,0,0,0,0,0,0,0,0,0,0,0,0,0,0,0,0,0,0,0,0,0,0,0,0.0272,0.0271,0,0.0248,0.0247,0.0247,0.0237,0.0237,0.0237,0.0237,0.0206,0.0205,0.0204,0,0,0,0,0,0,0,0,0,0,0,0,0,0.0267,0.0267,0.0272,0.0271,0.0271,0.0248,0.0247,0.0247,0.0237,0.0237,0.0237,0.0237,0.0206,0.0205,0.0204,0,0,0,0,0,0,0,0,0,0,0,0,0,0.0258,0.0268,0.0272,0.0264,0.0263,0.0248,0.0247,0.0247,0.0237,0.0237,0.0237,0.0237,0.0206,0.0205,0.0204,0.0193,0,0,0.0199,0.0199,0,0,0,0,0,0,0,0,0.0259,0.0258,0.0265,0.0264,0.0263,0.0246,0.0234,0.0229,0.0237,0.0246,0.0237,0.0237,0.0219,0.0216,0.0211,0.0191,0.019,0.0199,0.0198,0.0198,0.0197,0,0,0,0,0,0,0,0.026,0.0259,0.0262,0.0265,0.0264,0.0247,0.0246,0.0233,0.0231,0.0245,0.0244,0.0243,0.0218,0.0212,0.021,0.0189,0.0199,0.0198,0.0197,0.0197,0.0161,0.0161,0,0,0,0,0,0,0.0266,0.026,0.0262,0.0261,0.0262,0.0247,0.0246,0.0251,0.0232,0.0229,0.0242,0.0242,0.0214,0.0212,0.0209,0.021,0.0198,0.0197,0.0196,0.0161,0.0161,0.0161,0,0,0,0,0,0,0.0266,0.0266,0.0263,0.026,0.0258,0.0247,0.0252,0.025,0.0249,0.023,0.0227,0.0244,0.0214,0.0211,0.0203,0.0208,0.0196,0.0195,0.0161,0.0161,0.0161,0.0203,0,0,0,0,0,0,0.0266,0.0267,0.0273,0.0261,0.0259,0.0262,0.0252,0.025,0.0248,0.0247,0.023,0.0227,0.0214,0.0206,0.0202,0.0206,0.0194,0.0162,0.0161,0.0161,0.0201,0.0204,0.0206,0,0,0,0,0,0.0266,0.0276,0.0274,0.0274,0.0268,0.0262,0.026,0.0252,0.0248,0.0251,0.0239,0.0228,0.0201,0.0205,0.02,0.0204,0.0162,0.0161,0.0161,0.02,0.0203,0.0206,0,0,0,0,0,0,0.0275,0.0275,0.0273,0.0282,0.0276,0.0261,0.0263,0.0256,0.0248,0.0248,0.0229,0.0226,0.0219,0.0204,0.0208,0.0191,0.0178,0.0177,0.0209,0.0212,0.0214,0.0231,0.0193,0,0,0,0,0,0.0281,0.029,0.0283,0.029,0.0289,0.0276,0.0273,0.0268,0.0258,0.0255,0.0243,0.0227,0.0213,0.0208,0.0193,0.0187,0.0163,0.0184,0.0186,0.0188,0.0198,0.0163,0.0163,0.016,0.016,0.016,0,0,0.0286,0.0287,0.0292,0.0292,0.0287,0.0294,0.0275,0.0274,0.0281,0.0252,0.0257,0.0235,0.0213,0.0206,0.0202,0.0196,0.0175,0.0188,0.019,0.0198,0.0163,0.0163,0.0164,0.016,0.016,0.016,0,0,0.0302,0.0302,0.0317,0.0316,0.0313,0.0307,0.031,0.0299,0.0295,0.0292,0.0273,0.0257,0.0238,0.0223,0.0213,0.0218,0.0188,0.0209,0.0236,0.0203,0.0203,0.0203,0.0169,0.0166,0.0211,0.0211,0.0211,0,0.0308,0.0329,0.0319,0.0332,0.0339,0.0318,0.0337,0.0326,0.0314,0.0315,0.03,0.0268,0.0247,0.0239,0.024,0.0225,0.02,0.0231,0.0207,0.0206,0.0206,0.0171,0.0167,0.0213,0.0213,0.0213,0.0213,0,0.0336,0.0354,0.0361,0.0377,0.0381,0.0391,0.0381,0.0379,0.0369,0.0359,0.0346,0.031,0.0294,0.0277,0.0262,0.0248,0.023,0.0214,0.0204,0.0209,0.0172,0.0167,0.0216,0.0215,0.0215,0.0214,0,0,0.035,0.0379,0.0382,0.0405,0.0409,0.0419,0.0425,0.043,0.0443,0.041,0.0418,0.0378,0.0355,0.0342,0.031,0.0277,0.0245,0.0249,0.0246,0.0222,0.017,0.0153,0.0146,0.0225,0.0224,0.0224,0.0145,0,0.0378,0.0423,0.0427,0.047,0.0495,0.0484,0.0496,0.0494,0.0485,0.0484,0.0432,0.0427,0.038,0.0375,0.0333,0.0273,0.0235,0.0269,0.0163,0.016,0.015,0.014,0.0222,0.0141,0.0139,0.0138,0.0138,0,0.0408,0.0438,0.0489,0.0531,0.0541,0.056,0.0586,0.0597,0.0581,0.0572,0.0546,0.0507,0.046,0.0417,0.0308,0.0331,0.0258,0.02,0.0195,0.0165,0.0134,0.0134,0.0128,0.0129,0.013,0.013,0.0131,0,0.0435,0.0483,0.0532,0.0546,0.0582,0.0603,0.0623,0.0626,0.0653,0.0635,0.0643,0.0571,0.0545,0.044,0.0318,0.0315,0.019,0.0169,0.008,0.0078,0.0099,0.01,0.0088,0.0088,0.0089,0.0089,0.0089,0,0.0466,0.0506,0.0552,0.0578,0.0641,0.0649,0.0712,0.0713,0.0731,0.0767,0.0698,0.0696,0.0551,0.046,0.0338,0.0195,0.0202,0.0086,0.0057,0.0117,0.0121,0.0095,0.0097,0.0086,0.0086,0.0087,0.0088,0,0.0488,0.0516,0.058,0.0633,0.0658,0.0705,0.0784,0.0826,0.0829,0.087,0.0869,0.0794,0.0674,0.0516,0.0345,0.0233,0.0091,0.0037,0.0116,0.0093,-0.0005,-0.0,-0.0067,-0.0069,-0.007,-0.0071,-0.0071,0,0.0504,0.0539,0.0626,0.0674,0.0705,0.0781,0.0837,0.0874,0.0922,0.0929,0.0946,0.085,0.0775,0.0526,0.0351,0.0109,0.0071,-0.0011,-0.0014,0.0,-0.0021,-0.0014,-0.0008,-0.0073,-0.0073,-0.0074,-0.0074,0,0.0534,0.0566,0.062,0.0723,0.0796,0.0885,0.0962,0.1003,0.1039,0.1043,0.1011,0.0878,0.074,0.0535,0.0344,0.017,0.0037,-0.0023,-0.0022,-0.0026,-0.0007,-0.0026,-0.0018,-0.0077,-0.0077,-0.0077,-0.0076,0,0.0557,0.06,0.0676,0.0767,0.0863,0.0953,0.0997,0.1046,0.1089,0.1083,0.1071,0.0916,0.0828,0.0567,0.0394,0.0217,0.0166,0.0097,0.0091,0.0092,0.0155,0.0203,0.0175,0,0,0,0,0,0.0577,0.0629,0.0714,0.0815,0.0913,0.0975,0.1064,0.1098,0.1128,0.1113,0.1094,0.0963,0.0705,0.0599,0.0421,0.0362,0.0128,0.0143,0.0044,-0.0097,-0.0093,-0.0049,0,0,0,0,0,0,0.0589,0.0669,0.0714,0.084,0.0917,0.1031,0.1093,0.1117,0.1108,0.1104,0.0977,0.0906,0.0664,0.0811,0.0416,0.0362,0.027,0.0026,0.0021,-0.01,-0.0096,-0.0093,-0.0046,0,0,0,0,0]}]]